Flag for U.S.A. Weather past 2 weeks in Carson City, Nevada, U.S.A.

Now
59 °F

Broken clouds.


Feels Like: 56 °F
Forecast: 36 / 50 °F
Wind: 15 mph from Southwest

Location: Reno Tahoe International Airport


UV Index: 0 (Low)

Visibility: 10 mi


Pressure: 29.83 "Hg

Humidity: 16%

Dew point: 13 °F

Location of Carson CityLocation

Historic Weather in Carson City

°F

Carson City temperature yesterday

Maximum temperature yesterday: 66 °F (at 4:55 PM)
Minimum temperature yesterday: 35 °F (at 6:55 AM)
Average temperature yesterday: 50 °F

Past Weeks' High & Low Weather Summary

 TemperatureHumidityPressure
High80 °F (Apr 17, 2:55 PM)71% (Apr 19, 6:55 AM)30.20 "Hg (Apr 19, 6:55 AM)
Low35 °F (Apr 23, 6:55 AM)7% (Apr 20, 4:55 PM)29.67 "Hg (Apr 17, 4:55 PM)
Average58 °F32%29.92 "Hg
* Reported Apr 9 6:55 PM — Apr 24 6:55 PM, Carson City, Weather by CustomWeather, © 2014

Note: Actual official high and low records may vary slightly from our data, if they occured in-between our weather recording intervals... More about our weather records

Advertising

Historic Weather Conditions — Data for Previous 24 hours

 ConditionsComfort  
Time TempWeatherWind HumidityBarometerVisibility
6:55 PM
Apr 24
60 °FMore clouds than sun.13 mph25%29.84 "Hg10 mi
5:55 PM63 °FBroken clouds.16 mph19%29.83 "Hg10 mi
4:55 PM66 °FBroken clouds.18 mph18%29.83 "Hg10 mi
4:02 PM66 °FCloudy.20 mph20%29.95 "Hg10 mi
3:55 PM65 °FCloudy.14 mph22%29.84 "Hg10 mi
2:55 PM63 °FBroken clouds.20 mph27%29.88 "Hg10 mi
1:55 PM63 °FMostly cloudy.21 mph27%29.90 "Hg10 mi
12:55 PM65 °FMostly cloudy.12 mph25%29.89 "Hg10 mi
11:55 AM64 °FMostly cloudy.8 mph26%29.90 "Hg10 mi
10:55 AM64 °FMore clouds than sun.10 mph26%29.93 "Hg10 mi
9:55 AM58 °FMore clouds than sun.3 mph35%29.95 "Hg10 mi
8:55 AM56 °FBroken clouds.5 mph37%29.96 "Hg10 mi
7:55 AM50 °FBroken clouds.No wind46%29.96 "Hg10 mi
6:55 AM46 °FPassing clouds.6 mph54%29.97 "Hg10 mi
5:55 AM45 °FPassing clouds.5 mph58%29.96 "Hg10 mi
4:55 AM46 °FPassing clouds.3 mph54%29.96 "Hg10 mi
3:55 AM48 °FPassing clouds.No wind50%29.96 "Hg10 mi
2:55 AM49 °FPassing clouds.5 mph50%29.95 "Hg10 mi
1:55 AM50 °FPassing clouds.8 mph46%29.97 "Hg10 mi
12:55 AM52 °FPassing clouds.10 mph40%29.98 "Hg10 mi
11:55 PM
Apr 23
52 °FPassing clouds.6 mph43%29.96 "Hg10 mi
10:55 PM52 °FPassing clouds.13 mph43%30.00 "Hg10 mi
9:55 PM53 °FPassing clouds.14 mph43%29.99 "Hg10 mi
8:55 PM54 °FPassing clouds.14 mph40%29.97 "Hg10 mi
Weather by CustomWeather, © 2014

See weather overview